Theta_e
318 314 314 315 315 317 317 319 319 318 320 321 319 322 324 333 337 336 337 335 335 336 336 332 332 330 329 328 327 327 327 330 330 331 332 334 338 343 341 343 344 345 346 345
314 314 314 315 317 317 317 319 319 318 320 322 321 323 320 321 322 325 328 337 336 335 335 333 331 330 329 328 327 327 327 327 330 330 330 331 334 341 343 343 344 345 344 346
313 317 318 318 318 320 318 319 320 319 319 320 322 320 321 321 323 324 327 329 337 337 337 335 331 329 329 328 327 327 327 327 327 329 330 331 330 333 340 343 343 345 346 345
314 317 319 319 319 318 321 321 322 323 319 319 321 320 319 320 321 320 333 337 333 337 337 335 330 329 329 329 328 328 328 327 327 328 328 329 328 329 328 329 332 338 345 345
320 323 318 321 321 321 320 320 322 324 321 319 320 319 318 320 321 327 336 339 338 336 336 334 331 329 329 328 328 328 328 328 328 328 329 329 331 332 331 331 330 331 335 341
322 325 325 321 323 322 321 322 319 318 317 319 319 320 319 326 328 333 338 339 341 341 341 339 337 337 340 339 334 329 328 328 328 328 329 330 330 330 332 332 334 334 333 335
323 324 324 324 323 320 319 317 318 321 320 321 322 328 335 334 334 335 337 337 339 340 339 338 339 341 342 343 345 347 341 333 331 330 331 333 335 336 338 338 337 336 335 335
324 324 325 324 321 320 320 318 318 323 324 324 326 335 338 333 333 332 333 332 333 338 338 336 335 336 336 334 336 337 339 342 344 342 338 339 337 338 340 341 341 339 336 335
326 328 326 323 324 322 324 321 318 320 322 324 330 337 337 333 332 331 330 329 327 327 328 327 327 327 330 330 327 327 327 327 326 326 328 330 330 333 338 340 340 345 347 348
327 327 327 327 324 323 323 323 323 320 326 328 327 333 338 335 332 330 328 327 327 327 326 326 326 325 325 325 326 326 325 324 323 322 322 322 322 322 322 323 325 333 342 345
324 324 326 326 326 326 324 321 323 320 321 324 328 339 335 334 331 330 328 328 327 327 326 325 324 324 323 323 322 322 322 322 321 320 319 318 317 319 319 318 318 318 321 331
330 323 328 328 327 326 325 326 322 323 326 325 323 330 332 330 329 329 325 321 323 326 324 324 323 323 324 324 323 322 321 320 319 316 315 316 317 318 315 316 317 317 317 318
330 324 324 323 320 324 327 327 327 322 322 326 326 331 332 331 326 324 322 320 321 322 323 322 322 322 322 322 322 321 320 317 316 317 318 317 317 316 317 317 315 317 317 317
329 325 322 322 325 325 326 327 327 325 326 327 326 336 324 322 318 318 319 319 318 318 318 318 318 318 317 317 317 318 318 319 319 319 319 319 319 319 319 318 318 319 318 317
323 327 328 328 328 327 327 326 324 324 327 328 326 328 321 317 315 318 318 318 318 318 318 317 317 318 319 319 319 319 319 320 319 319 318 318 317 317 318 320 320 320 318 319
323 328 326 326 326 323 324 323 323 322 321 321 322 321 316 316 317 317 317 317 317 318 318 318 317 317 318 319 318 318 318 318 318 318 316 316 316 316 316 315 315 316 320 320
325 324 323 327 324 323 324 322 322 322 321 320 322 318 316 315 316 317 318 318 319 319 319 319 319 318 318 318 317 317 317 316 316 316 316 316 316 317 316 316 316 315 314 318
322 322 321 323 322 323 320 321 321 320 319 318 317 315 315 316 318 318 318 319 318 318 318 317 316 315 314 314 316 317 317 317 317 316 316 316 316 316 317 317 315 315 316 315
320 319 322 323 322 321 323 320 321 321 319 317 315 316 317 317 319 317 317 316 316 316 316 315 314 314 313 315 316 315 315 315 316 316 316 317 318 317 316 317 317 316 316 316
320 319 319 321 324 324 321 319 318 318 319 317 317 316 317 317 315 314 317 316 317 316 315 314 313 314 315 315 316 315 315 315 315 315 315 315 315 316 317 317 317 316 316 316
323 322 321 319 322 321 320 319 319 319 317 316 317 317 317 315 317 316 315 316 316 315 313 313 314 315 316 316 315 314 314 314 314 314 315 315 315 316 316 316 316 316 316 316
319 319 321 319 321 322 319 318 320 316 316 316 316 316 316 315 314 315 316 316 314 313 312 314 314 315 315 315 314 313 313 313 313 314 315 315 316 316 316 317 317 316 317 317
320 317 319 318 318 316 318 317 317 317 316 316 316 316 315 314 315 315 316 314 314 312 313 313 314 315 314 314 312 312 311 311 310 312 313 314 315 315 315 314 313 313 313 314
316 317 315 315 317 316 317 317 317 317 317 316 316 315 315 315 315 314 314 314 313 312 314 314 314 313 313 311 311 311 311 312 311 313 314 314 315 313 313 312 312 312 312 312
314 315 314 314 316 316 316 316 316 316 316 315 315 314 315 316 315 314 314 313 311 313 315 313 312 311 309 308 308 308 308 312 312 311 312 313 313 312 311 311 310 310 309 309
315 314 313 313 317 315 316 316 316 316 314 315 314 314 315 316 314 313 311 311 312 313 312 311 309 309 308 309 309 309 308 308 311 311 311 312 312 311 310 310 309 309 308 307
Wind_Speed
1 5 5 11 9 8 4 0 4 6 6 3 5 3 2 20 21 21 25 30 41 41 36 38 40 37 37 37 32 31 28 30 28 28 29 28 28 24 26 24 24 24 25 29
5 7 12 4 3 5 7 6 6 7 7 2 6 5 6 5 8 17 24 39 42 39 36 41 44 41 38 38 33 30 30 28 32 29 29 29 31 31 29 29 28 27 27 29
6 8 8 7 6 6 5 7 6 8 5 4 2 7 5 9 10 14 12 16 38 42 43 44 47 44 38 37 35 31 29 29 29 29 28 27 27 33 35 34 34 34 29 30
7 12 7 6 7 8 4 4 2 5 2 3 4 5 6 7 9 9 15 17 25 46 40 38 43 43 40 36 31 31 28 28 29 30 31 32 32 33 35 38 37 35 38 34
8 6 7 6 8 4 8 2 3 1 3 3 7 3 8 6 8 6 14 30 25 23 25 27 25 31 29 30 34 36 35 31 30 34 35 33 34 35 35 33 34 35 36 40
10 9 4 7 4 5 5 5 7 5 3 4 6 5 5 7 6 9 22 29 37 38 33 29 25 21 13 9 16 32 37 34 36 36 35 35 36 37 36 35 36 36 37 38
7 6 5 5 2 6 7 7 4 4 4 5 4 7 4 6 13 13 23 29 34 40 39 36 33 28 21 18 14 7 14 30 32 33 32 32 32 32 31 32 36 37 39 41
2 8 4 3 7 7 6 8 6 5 3 5 4 5 3 5 24 29 30 30 37 40 39 38 34 28 24 21 19 20 22 22 11 6 8 17 26 28 29 33 35 39 42 45
4 5 9 13 5 8 2 3 7 6 1 3 1 4 4 4 14 25 27 33 33 39 38 35 31 27 21 18 18 16 14 13 12 10 5 7 10 10 14 15 18 25 30 33
6 1 5 5 7 5 4 4 3 3 4 3 4 3 6 5 12 14 19 27 31 31 33 30 26 21 18 14 10 7 6 7 10 12 13 14 15 17 18 19 20 19 18 20
5 3 5 5 3 0 5 4 6 5 4 5 2 4 3 5 9 13 17 25 24 23 26 24 22 18 14 13 12 12 8 8 12 16 20 23 24 25 24 25 25 24 22 22
1 5 3 4 2 3 3 2 4 5 3 0 4 3 5 6 12 21 23 31 32 27 24 19 15 10 7 8 10 12 13 17 19 21 22 24 25 27 33 35 33 32 30 28
0 2 3 8 6 7 5 5 4 5 3 4 5 3 2 6 18 20 24 26 26 23 19 15 12 10 10 12 16 20 22 24 23 19 19 25 29 31 28 27 33 34 34 33
5 4 5 6 3 3 3 5 4 5 3 3 4 10 4 4 9 17 26 25 23 20 17 13 12 14 15 16 17 18 19 17 19 20 24 27 31 27 26 30 26 31 37 34
5 4 2 1 1 1 1 5 2 3 3 3 5 7 7 5 7 18 21 18 16 14 13 14 16 15 14 14 15 18 20 22 24 28 32 35 35 33 33 30 30 32 30 30
3 2 2 6 6 7 5 7 6 5 2 3 14 10 6 14 23 21 18 17 16 15 12 13 16 19 21 21 21 23 26 29 31 33 34 31 31 33 34 32 30 35 34 33
3 4 3 1 5 5 5 6 5 6 4 3 7 8 7 10 16 18 17 16 15 14 12 11 14 17 21 25 28 28 30 30 28 30 30 31 33 33 33 33 35 35 35 39
4 4 3 2 4 1 4 8 15 16 9 12 15 7 10 18 22 18 15 12 10 7 9 12 16 21 25 23 19 22 24 25 29 32 32 33 33 35 35 36 35 34 35 34
7 5 2 4 4 5 1 2 1 5 2 3 8 8 9 15 13 15 13 14 13 11 7 14 22 27 27 19 22 26 28 29 30 33 34 35 35 38 38 36 37 39 40 40
5 5 5 3 5 7 4 3 5 7 3 4 16 10 9 5 2 4 13 13 10 10 17 26 24 17 16 21 25 28 29 33 36 36 36 36 37 35 34 35 39 39 39 40
3 2 6 3 3 5 4 3 2 5 5 16 17 13 10 4 3 8 10 12 12 20 24 15 15 18 19 21 26 30 32 29 30 31 30 31 29 30 32 33 34 37 37 38
7 6 4 3 2 7 9 4 3 9 15 16 12 9 6 8 7 8 14 11 18 23 15 14 17 18 20 22 27 29 28 30 31 30 27 30 27 28 29 30 33 33 34 37
1 5 5 6 5 2 5 16 22 18 19 11 6 3 6 6 10 13 5 11 14 14 12 16 18 18 22 22 26 29 29 30 31 29 25 29 28 29 30 32 35 38 37 37
6 2 4 4 4 9 24 22 20 16 14 9 3 2 1 5 5 4 5 8 12 13 11 11 16 17 20 25 25 26 26 29 30 28 26 25 26 30 29 32 35 37 36 38
4 3 4 5 12 19 13 14 13 10 7 3 3 4 1 6 5 5 6 12 13 7 9 15 14 16 20 22 23 27 26 26 28 26 24 24 28 29 30 31 36 39 39 32
2 5 4 4 14 7 15 12 7 4 3 2 3 2 5 6 2 6 13 8 5 7 11 13 13 13 14 18 22 30 33 24 25 26 24 25 28 29 31 37 40 43 42 35
Wind_Direction
238 80 201 213 190 215 222 312 283 269 264 269 301 299 249 171 181 183 200 196 196 204 203 199 202 204 203 203 206 206 211 212 216 213 211 212 214 216 220 222 225 226 231 228
14 230 228 232 263 247 241 254 265 278 273 57 329 307 293 252 209 219 194 202 202 203 202 203 202 205 203 205 208 211 213 216 219 224 226 227 223 219 219 220 223 232 234 230
173 238 203 188 254 253 227 186 223 232 323 326 327 328 330 302 302 289 95 181 198 198 202 205 201 203 200 204 208 215 221 218 225 225 225 230 234 232 229 227 226 226 231 235
222 264 226 230 227 179 186 214 300 332 27 243 38 270 294 294 306 57 81 105 183 201 201 198 197 199 200 206 211 219 227 229 231 232 231 234 234 231 234 234 237 233 231 234
252 298 225 227 203 154 228 205 246 206 61 64 322 38 270 347 24 96 82 80 98 156 167 169 174 189 195 206 212 215 221 230 237 236 238 242 246 249 249 250 249 246 243 241
249 258 235 210 178 176 141 64 39 44 57 6 258 135 338 341 137 119 86 81 86 104 114 126 132 145 141 166 217 226 223 225 231 236 241 244 250 257 257 262 262 262 259 254
325 296 279 230 108 17 79 60 7 357 15 224 67 68 307 357 67 81 93 85 89 97 100 101 105 110 110 104 96 102 205 231 235 239 245 251 254 259 263 268 273 269 266 260
235 322 192 203 166 179 182 144 151 190 201 257 6 140 140 97 84 86 87 92 93 98 101 100 101 103 99 92 89 90 85 82 104 181 259 276 265 264 269 272 272 268 265 265
192 267 284 159 145 127 194 178 180 108 321 74 176 63 52 106 89 86 90 92 91 99 102 98 96 96 104 97 81 74 64 57 38 32 5 336 330 319 305 309 315 295 281 275
219 274 335 29 71 29 138 171 68 9 127 182 274 181 185 158 111 101 97 94 97 97 98 99 95 92 90 90 92 77 41 5 349 341 333 325 320 314 310 310 308 298 297 298
155 109 296 39 80 194 352 357 60 116 116 159 155 269 215 150 124 111 108 105 99 98 96 95 91 89 85 80 70 67 48 354 334 331 325 318 312 308 303 303 306 309 301 297
22 132 137 205 262 245 166 9 118 113 237 95 138 291 358 145 119 96 91 87 87 96 99 91 82 72 45 14 348 342 340 337 329 324 316 308 308 303 297 301 304 305 303 304
256 28 49 341 358 6 48 16 48 102 86 195 139 189 28 91 88 100 101 93 95 96 95 87 72 47 19 352 336 328 327 332 332 332 321 314 314 315 317 307 303 305 305 305
98 81 140 185 177 211 334 331 64 97 105 208 200 133 45 78 92 83 95 91 86 76 68 55 34 14 358 348 342 339 333 325 317 315 313 312 311 309 305 305 304 300 303 301
82 95 60 99 151 344 271 297 344 141 181 156 149 128 180 171 105 100 95 84 71 52 32 15 4 358 353 339 333 325 321 315 314 314 314 312 308 303 298 296 294 296 293 292
14 171 102 355 20 22 324 297 295 259 153 129 113 110 180 113 106 92 82 72 57 41 22 357 340 326 323 323 323 316 312 312 316 317 317 320 320 315 313 317 315 298 291 288
103 117 79 243 352 21 328 276 228 78 10 181 154 158 164 93 90 84 74 60 47 30 7 335 320 318 319 318 317 317 317 318 319 319 318 322 324 320 319 315 313 308 308 288
114 93 101 173 47 321 254 19 102 94 52 62 88 101 99 119 102 82 71 71 55 19 338 326 328 328 330 331 332 331 334 328 326 325 324 324 324 321 318 317 313 313 316 308
149 118 113 148 178 279 4 87 271 137 26 46 88 76 70 133 125 73 35 12 0 354 2 339 334 328 327 326 336 333 328 327 327 325 323 321 319 318 317 312 317 312 311 310
62 102 127 152 160 214 223 146 77 125 137 122 109 94 85 74 76 283 343 351 350 353 335 331 334 339 337 340 338 334 332 330 327 325 321 318 317 317 317 316 315 315 311 308
114 33 165 153 199 275 170 310 62 147 187 134 122 118 104 122 197 299 336 341 344 336 339 348 348 346 346 338 337 335 334 335 331 330 330 330 327 322 321 323 320 317 314 311
166 151 189 103 128 273 166 62 155 144 132 129 118 104 56 356 355 0 334 330 338 345 350 351 347 345 342 339 338 339 336 332 329 328 326 337 339 339 335 330 326 323 320 315
147 176 181 170 207 168 137 129 133 148 133 128 122 43 5 3 338 327 322 325 339 352 337 343 334 335 334 337 339 333 340 347 340 333 328 336 339 341 338 335 333 329 324 321
329 47 92 81 19 86 120 127 137 147 142 137 141 164 138 357 352 340 298 310 331 337 334 342 340 340 338 344 343 341 346 350 346 342 340 343 345 339 338 340 340 335 332 324
224 50 103 61 99 104 115 126 137 130 134 154 173 186 206 320 324 297 310 321 327 344 347 346 347 347 356 359 9 8 351 346 352 351 351 346 338 339 347 352 349 343 339 326
204 174 147 201 180 157 152 150 147 153 162 166 174 181 338 353 262 316 326 339 11 341 359 6 6 12 15 15 13 10 7 355 354 353 349 341 343 349 348 348 346 343 345 342